Change the Weather History Date:

Tuesday, May 7, 2013

  Actual Average Record
Temperature  
Mean Temperature 58 °F -  
Max Temperature 80 °F 64 °F 90 °F (2000)
Min Temperature 37 °F 39 °F 26 °F (2001)
Degree Days  
Heating Degree Days 7    
Growing Degree Days 8 (Base 50)    
Moisture  
Dew Point 42 °F    
Average Humidity 74    
Maximum Humidity 100    
Minimum Humidity 22    
Precipitation  
Precipitation 0.00 in - - ()
Sea Level Pressure  
Sea Level Pressure 30.16 in    
Wind  
Wind Speed 1 mph (South)    
Max Wind Speed 12 mph    
Max Gust Speed 17 mph    
Visibility 7 miles    
Events Fog    
Averages and records for this station are not official NWS values.
T = Trace of Precipitation, MM = Missing Value Source: NWS Daily Summary

Daily Weather History Graph

Daily Weather History Graph

Search for Another Location

Airport or City:

Trip Planner

Search our weather history database for the weather conditions in past years. The results will help you decide how hot, cold, wet, or windy it might be!

Date:

Astronomy

May. 07, 2013 Rise Set
Actual Time 5:35 AM EDT 7:56 PM EDT
Civil Twilight 5:04 AM EDT 8:27 PM EDT
Nautical Twilight 4:25 AM EDT 9:06 PM EDT
Astronomical Twilight 3:42 AM EDT 9:50 PM EDT
Moon 4:11 AM EDT (5/7) 5:50 PM EDT (5/7)
Length of Visible Light 15h 23m
Length of Day
14h 20m
Waning Crescent, 5% of the Moon is Illuminated
May 7
Waning Crescent
May 9
New
May 18
First Quarter
May 25
Full
May 31
Last Quarter

Hourly Weather History & Observations

Time (EDT) Temp. Dew Point Humidity Pressure Visibility Wind Dir Wind Speed Gust Speed Precip Events Conditions
12:52 AM 45.0 °F 42.1 °F 90% 30.18 in 10.0 mi Calm Calm - N/A   Clear
1:52 AM 42.1 °F 39.9 °F 92% 30.17 in 10.0 mi Calm Calm - N/A   Clear
2:52 AM 41.0 °F 39.0 °F 93% 30.17 in 10.0 mi Calm Calm - N/A   Clear
4:06 AM 39.2 °F 37.4 °F 93% 30.16 in 1.8 mi Calm Calm - N/A   Clear
4:12 AM 39.2 °F 37.4 °F 93% 30.17 in 1.0 mi Calm Calm - N/A   Clear
4:20 AM 39.2 °F 37.4 °F 93% 30.17 in 1.5 mi Calm Calm - N/A   Clear
4:28 AM 39.2 °F 37.4 °F 93% 30.16 in 3.0 mi Calm Calm - N/A   Clear
4:52 AM 39.0 °F 37.0 °F 93% 30.17 in 2.0 mi Calm Calm - N/A   Clear
4:55 AM 37.4 °F 37.4 °F 100% 30.17 in 1.2 mi Calm Calm - N/A   Clear
5:02 AM 37.4 °F 37.4 °F 100% 30.17 in 2.0 mi Calm Calm - N/A   Clear
5:10 AM 37.4 °F 37.4 °F 100% 30.17 in 10.0 mi Calm Calm - N/A   Clear
5:28 AM 37.4 °F 37.4 °F 100% 30.17 in 1.8 mi Calm Calm - N/A   Clear
5:36 AM 37.4 °F 35.6 °F 93% 30.17 in 3.0 mi Calm Calm - N/A   Clear
5:52 AM 37.9 °F 36.0 °F 93% 30.18 in 10.0 mi Calm Calm - N/A   Clear
6:22 AM 39.2 °F 37.4 °F 93% 30.18 in 2.5 mi Calm Calm - N/A   Scattered Clouds
6:29 AM 39.2 °F 37.4 °F 93% 30.18 in 3.0 mi Calm Calm - N/A   Mostly Cloudy
6:40 AM 41.0 °F 39.2 °F 93% 30.18 in 0.8 mi Calm Calm - N/A   Mostly Cloudy
6:52 AM 42.1 °F 41.0 °F 96% 30.18 in 0.2 mi Calm Calm - N/A Fog Fog
7:00 AM 42.8 °F 41.0 °F 93% 30.18 in 1.2 mi Calm Calm - N/A   Overcast
7:02 AM 42.8 °F 41.0 °F 93% 30.18 in 2.0 mi Calm Calm - N/A   Overcast
7:09 AM 42.8 °F 42.8 °F 100% 30.18 in 7.0 mi Calm Calm - N/A   Overcast
7:32 AM 44.6 °F 42.8 °F 93% 30.18 in 10.0 mi Calm Calm - N/A   Scattered Clouds
7:52 AM 48.0 °F 45.0 °F 89% 30.19 in 10.0 mi Calm Calm - N/A   Clear
8:52 AM 57.0 °F 46.9 °F 69% 30.18 in 10.0 mi Calm Calm - N/A   Clear
9:52 AM 66.0 °F 48.0 °F 52% 30.17 in 10.0 mi Calm Calm - N/A   Clear
10:52 AM 71.1 °F 43.0 °F 36% 30.16 in 10.0 mi Variable 5.8 mph - N/A   Clear
11:52 AM 72.0 °F 39.9 °F 31% 30.15 in 10.0 mi South 6.9 mph - N/A   Clear
12:52 PM 75.0 °F 37.9 °F 26% 30.13 in 10.0 mi WSW 9.2 mph - N/A   Clear
1:52 PM 75.9 °F 34.0 °F 22% 30.12 in 10.0 mi Variable 6.9 mph 17.3 mph N/A   Clear
2:52 PM 77.0 °F 39.9 °F 26% 30.10 in 10.0 mi South 9.2 mph - N/A   Clear
3:52 PM 79.0 °F 41.0 °F 26% 30.08 in 10.0 mi South 9.2 mph 16.1 mph N/A   Clear
4:52 PM 79.0 °F 43.0 °F 28% 30.07 in 10.0 mi South 9.2 mph - N/A   Scattered Clouds
5:52 PM 75.9 °F 46.0 °F 35% 30.07 in 10.0 mi South 11.5 mph - N/A   Mostly Cloudy
6:52 PM 75.0 °F 48.9 °F 40% 30.09 in 10.0 mi South 6.9 mph - N/A   Clear
7:52 PM 71.1 °F 53.1 °F 53% 30.11 in 10.0 mi South 9.2 mph - N/A   Clear
8:52 PM 68.0 °F 53.1 °F 59% 30.13 in 10.0 mi South 6.9 mph - N/A   Clear
9:52 PM 64.0 °F 53.1 °F 67% 30.15 in 10.0 mi South 3.5 mph - N/A   Clear
10:52 PM 63.0 °F 53.1 °F 70% 30.16 in 10.0 mi South 5.8 mph - N/A   Clear
11:52 PM 57.0 °F 52.0 °F 83% 30.17 in 10.0 mi Calm Calm - N/A   Clear